When you browse on this site, cookies collect data to enhance your experience and personalize the content and advertising you see.
Visit our Privacy Policy to learn more. By continuing to use the site, you agree to this use of cookies and data.
  • In United Kingdom
  • List of Countries
  • For 7 days
  • Water Temperature
  • Satellite Maps
  • Weather Map
  • Weather Widgets
  • user-avatar
    Login

    Hourly Weather Ludza

    Today, 24 July, Wednesday

    Time Temperature Precipitation Wind Pressure Humidity
    00:00 +15°C° 0 mm 2 mps 747 mmHg 83%
    01:00 +14°C° 0 mm 2 mps 747 mmHg 83%
    02:00 +14°C° 0 mm 2 mps 747 mmHg 84%
    03:00 +14°C° 0 mm 2 mps 747 mmHg 86%
    04:00 +14°C° 0 mm 2 mps 747 mmHg 87%
    05:00 +14°C° 0 mm 2 mps 747 mmHg 89%
    06:00 +16°C° 0 mm 2 mps 748 mmHg 83%
    07:00 +18°C° 0 mm 2 mps 748 mmHg 76%
    08:00 +20°C° 0 mm 3 mps 748 mmHg 70%
    09:00 +21°C° 0 mm 3 mps 748 mmHg 63%
    10:00 +22°C° 0 mm 3 mps 748 mmHg 57%
    11:00 +25°C° 0 mm 3 mps 749 mmHg 50%
    12:00 +25°C° 0 mm 3 mps 748 mmHg 48%
    13:00 +25°C° 0 mm 3 mps 748 mmHg 46%
    14:00 +26°C° 0 mm 3 mps 748 mmHg 44%
    15:00 +26°C° 0 mm 2 mps 748 mmHg 46%
    16:00 +26°C° 0 mm 2 mps 748 mmHg 47%
    17:00 +25°C° 0 mm 1 mps 748 mmHg 49%
    18:00 +24°C° 0.1 mm 2 mps 748 mmHg 59%
    19:00 +21°C° 0.1 mm 2 mps 748 mmHg 70%
    20:00 +19°C° 0.1 mm 3 mps 748 mmHg 80%
    21:00 +18°C° 0 mm 2 mps 748 mmHg 84%
    22:00 +17°C° 0 mm 2 mps 748 mmHg 88%
    23:00 +16°C° 0 mm 2 mps 748 mmHg 93%

    Tomorrow, 25 July, Thursday

    Time Temperature Precipitation Wind Pressure Humidity
    00:00 +16°C° 0.1 mm 2 mps 748 mmHg 93%
    01:00 +16°C° 0.1 mm 2 mps 748 mmHg 94%
    02:00 +15°C° 0.1 mm 1 mps 748 mmHg 95%
    03:00 +15°C° 0.5 mm 1 mps 748 mmHg 96%
    04:00 +15°C° 0.5 mm 1 mps 748 mmHg 96%
    05:00 +15°C° 0.5 mm 1 mps 748 mmHg 97%
    06:00 +16°C° 0.4 mm 2 mps 748 mmHg 95%
    07:00 +17°C° 0.4 mm 2 mps 748 mmHg 92%
    08:00 +18°C° 0.4 mm 2 mps 748 mmHg 90%
    09:00 +18°C° 1.2 mm 3 mps 748 mmHg 89%
    10:00 +18°C° 1.2 mm 3 mps 748 mmHg 89%
    11:00 +19°C° 1.2 mm 4 mps 748 mmHg 88%
    12:00 +19°C° 0.3 mm 3 mps 748 mmHg 81%
    13:00 +20°C° 0.3 mm 3 mps 748 mmHg 74%
    14:00 +21°C° 0.3 mm 3 mps 748 mmHg 68%
    15:00 +21°C° 0.1 mm 3 mps 748 mmHg 67%
    16:00 +22°C° 0.1 mm 3 mps 748 mmHg 66%
    17:00 +22°C° 0.1 mm 3 mps 748 mmHg 66%
    18:00 +20°C° 0.3 mm 3 mps 748 mmHg 75%
    19:00 +19°C° 0.3 mm 3 mps 748 mmHg 84%
    20:00 +17°C° 0.3 mm 2 mps 748 mmHg 93%
    21:00 +16°C° 0 mm 2 mps 748 mmHg 94%
    22:00 +16°C° 0 mm 2 mps 749 mmHg 95%
    23:00 +15°C° 0 mm 1 mps 749 mmHg 96%

    Day after tomorrow, 26 July, Friday

    Time Temperature Precipitation Wind Pressure Humidity
    00:00 +15°C° 0 mm 2 mps 749 mmHg 97%
    01:00 +15°C° 0 mm 2 mps 749 mmHg 97%
    02:00 +15°C° 0 mm 2 mps 749 mmHg 98%
    03:00 +15°C° 0 mm 2 mps 749 mmHg 98%
    04:00 +15°C° 0 mm 2 mps 749 mmHg 98%
    05:00 +15°C° 0 mm 2 mps 749 mmHg 98%
    06:00 +16°C° 0 mm 2 mps 749 mmHg 97%
    07:00 +16°C° 0 mm 2 mps 749 mmHg 95%
    08:00 +17°C° 0 mm 2 mps 749 mmHg 94%
    09:00 +18°C° 0 mm 3 mps 750 mmHg 92%
    10:00 +18°C° 0 mm 3 mps 750 mmHg 91%
    11:00 +19°C° 0 mm 3 mps 750 mmHg 89%
    12:00 +19°C° 0 mm 3 mps 750 mmHg 86%
    13:00 +20°C° 0 mm 3 mps 750 mmHg 82%
    14:00 +21°C° 0 mm 3 mps 750 mmHg 79%
    15:00 +22°C° 0 mm 3 mps 750 mmHg 76%
    16:00 +24°C° 0 mm 3 mps 750 mmHg 73%
    17:00 +25°C° 0 mm 3 mps 749 mmHg 70%
    18:00 +24°C° 0.2 mm 3 mps 750 mmHg 77%
    19:00 +22°C° 0.2 mm 3 mps 750 mmHg 84%
    20:00 +21°C° 0.2 mm 2 mps 750 mmHg 91%
    21:00 +20°C° 0 mm 2 mps 750 mmHg 93%
    22:00 +19°C° 0 mm 2 mps 750 mmHg 94%
    23:00 +19°C° 0 mm 2 mps 749 mmHg 96%

    27 July, Saturday

    Time Temperature Precipitation Wind Pressure Humidity
    00:00 +18°C° 0 mm 2 mps 749 mmHg 96%
    01:00 +18°C° 0 mm 2 mps 749 mmHg 97%
    02:00 +18°C° 0 mm 2 mps 749 mmHg 98%
    03:00 +18°C° 0 mm 2 mps 749 mmHg 98%
    04:00 +18°C° 0 mm 3 mps 749 mmHg 98%
    05:00 +17°C° 0 mm 3 mps 749 mmHg 98%
    06:00 +19°C° 0 mm 3 mps 749 mmHg 93%
    07:00 +20°C° 0 mm 3 mps 749 mmHg 89%
    08:00 +22°C° 0 mm 3 mps 749 mmHg 85%
    09:00 +23°C° 0 mm 4 mps 749 mmHg 76%
    10:00 +26°C° 0 mm 4 mps 749 mmHg 67%
    11:00 +28°C° 0 mm 5 mps 749 mmHg 58%
    12:00 +28°C° 0 mm 5 mps 749 mmHg 56%
    13:00 +29°C° 0 mm 4 mps 748 mmHg 54%
    14:00 +29°C° 0 mm 4 mps 748 mmHg 52%
    15:00 +29°C° 0 mm 4 mps 748 mmHg 54%
    16:00 +29°C° 0 mm 4 mps 748 mmHg 57%
    17:00 +29°C° 0 mm 4 mps 747 mmHg 59%
    18:00 +27°C° 0.1 mm 3 mps 747 mmHg 67%
    19:00 +25°C° 0.1 mm 3 mps 747 mmHg 75%
    20:00 +23°C° 0.1 mm 2 mps 747 mmHg 83%
    21:00 +21°C° 0 mm 2 mps 747 mmHg 86%
    22:00 +20°C° 0 mm 2 mps 747 mmHg 89%
    23:00 +19°C° 0 mm 2 mps 747 mmHg 92%

    28 July, Sunday

    Time Temperature Precipitation Wind Pressure Humidity
    00:00 +19°C° 0 mm 2 mps 747 mmHg 93%
    01:00 +18°C° 0 mm 2 mps 747 mmHg 93%
    02:00 +18°C° 0 mm 2 mps 747 mmHg 94%
    03:00 +18°C° 0 mm 2 mps 747 mmHg 94%
    04:00 +17°C° 0 mm 2 mps 747 mmHg 94%
    05:00 +17°C° 0 mm 3 mps 747 mmHg 94%
    06:00 +18°C° 0 mm 3 mps 747 mmHg 89%
    07:00 +19°C° 0 mm 3 mps 747 mmHg 85%
    08:00 +21°C° 0 mm 4 mps 747 mmHg 81%
    09:00 +21°C° 0 mm 4 mps 747 mmHg 74%
    10:00 +21°C° 0 mm 4 mps 747 mmHg 68%
    11:00 +22°C° 0 mm 4 mps 747 mmHg 61%
    12:00 +22°C° 0 mm 4 mps 747 mmHg 58%
    13:00 +22°C° 0 mm 5 mps 747 mmHg 54%
    14:00 +22°C° 0 mm 5 mps 747 mmHg 50%
    15:00 +22°C° 0 mm 5 mps 747 mmHg 51%
    16:00 +21°C° 0 mm 4 mps 747 mmHg 51%
    17:00 +21°C° 0 mm 4 mps 747 mmHg 52%
    18:00 +19°C° 0 mm 4 mps 747 mmHg 58%
    19:00 +17°C° 0 mm 3 mps 747 mmHg 64%
    20:00 +14°C° 0 mm 3 mps 747 mmHg 70%
    21:00 +13°C° 0 mm 3 mps 747 mmHg 73%
    22:00 +12°C° 0 mm 3 mps 748 mmHg 76%
    23:00 +11°C° 0 mm 3 mps 748 mmHg 80%

    29 July, Monday

    Time Temperature Precipitation Wind Pressure Humidity
    00:00 +10°C° 0 mm 3 mps 748 mmHg 81%
    01:00 +10°C° 0 mm 3 mps 748 mmHg 82%
    02:00 +9°C° 0 mm 3 mps 749 mmHg 83%
    03:00 +8°C° 0 mm 3 mps 749 mmHg 84%
    04:00 +8°C° 0 mm 3 mps 749 mmHg 85%
    05:00 +7°C° 0 mm 3 mps 749 mmHg 86%
    06:00 +9°C° 0 mm 3 mps 749 mmHg 77%
    07:00 +10°C° 0 mm 4 mps 749 mmHg 69%
    08:00 +12°C° 0 mm 4 mps 750 mmHg 60%
    09:00 +13°C° 0 mm 4 mps 749 mmHg 57%
    10:00 +14°C° 0 mm 4 mps 749 mmHg 54%
    11:00 +15°C° 0 mm 4 mps 749 mmHg 51%
    12:00 +17°C° 0 mm 4 mps 749 mmHg 50%
    13:00 +18°C° 0 mm 4 mps 749 mmHg 48%
    14:00 +19°C° 0 mm 4 mps 748 mmHg 46%
    15:00 +19°C° 0 mm 3 mps 748 mmHg 49%
    16:00 +19°C° 0 mm 3 mps 748 mmHg 52%
    17:00 +19°C° 0 mm 3 mps 747 mmHg 55%
    18:00 +18°C° 0 mm 3 mps 747 mmHg 62%
    19:00 +16°C° 0 mm 3 mps 747 mmHg 69%
    20:00 +14°C° 0 mm 3 mps 747 mmHg 76%
    21:00 +14°C° 0.1 mm 3 mps 747 mmHg 79%
    22:00 +13°C° 0.1 mm 3 mps 747 mmHg 82%
    23:00 +13°C° 0.1 mm 3 mps 747 mmHg 84%
    Show more